Regional Weather Roundup
Issued by NWS Goodland, KS

Home | Current Version | Previous Version | Text Only | Print | Product List | Glossary Off
Versions: 1 2 3 4 5 6 7 8 9 10 11 12 13 14 15 16 17 18 19 20 21 22 23 24 25 26 27 28 29 30 31 32 33 34 35 36 37 38 39 40 41 42 43 44 45 46 47 48 49 50

000
ASUS43 KGLD 161859
RWRGLD

GOODLAND FORECAST AREA HOURLY WEATHER ROUNDUP
NATIONAL WEATHER SERVICE GOODLAND KS
100 PM MDT WED AUG 16 2017

...OFFICIAL OBSERVATIONS...

CITY           SKY/WX    TMP DP  RH WIND       PRES   REMARKS
GOODLAND KS    MOSUNNY   76  60  57 NW10G18   30.01F
HILL CITY KS   MOSUNNY   78  62  57 NW14      29.94S
IMPERIAL NEB   PTSUNNY   75  57  53 NW15      29.99S
MCCOOK NEB     CLOUDY    77  61  57 NW12      29.94S
AKRON CO       MOSUNNY   71  48  43 NW18G25   30.09S
BURLINGTON CO  MOSUNNY   74  57  55 NW12G20   30.06F
LIMON CO       CLOUDY    69  50  50 NW15G24   30.14F
$$

...UNOFFICIAL OBSERVATIONS...

CITY           SKY/WX    TMP DP  RH WIND       PRES   REMARKS
LENORA KS        N/A     75  32  20 NW8         N/A
NORTON KS      MOSUNNY   79  54  41 NW8       29.93S
SHARON SPRINGS   N/A     77  62  59 N12         N/A
TRENTON NEB      N/A     75  32  20 NW8         N/A
KIT CARSON CO    N/A     74  52  46 MISG        N/A
YUMA CO        FAIR      70  37  30 NW14      30.05S
$$




USA.gov is the U.S. government's official web portal to all federal, state and local government web resources and services.